This demonstration page uses our WeatherBlox Daily Observations layout. Learn more.

Left ArrowRight Arrow

38.88101, -77.10428

Hourly Observations for November 18, 2018

Temp ( °F °C ) Dew Point ( °F °C ) Humidity (%) Winds ( mph kmh ) Pressure ( in mb ) Visibility ( mi km ) Precip ( " mm )
12:52 am 00:52 Mostly Cloudy 38 3.3 33 0.6 83 83 SSW 3 6 30.35 1028 9 14.48406 0 0
1:52 am 01:52 Mostly Cloudy 38 3.3 32 0 79 79 Calm 30.35 1028 9 14.48406 0 0
2:52 am 02:52 Mostly Clear 37 2.8 32 0 82 82 SW 3 6 30.35 1028 9 14.48406 0 0
3:52 am 03:52 Mostly Cloudy 36 2.2 32 0 86 86 Calm 30.35 1028 9 14.48406 0 0
4:52 am 04:52 Mostly Cloudy 37 2.8 32 0 82 82 Calm 30.36 1028 9 14.48406 0 0
5:52 am 05:52 Mostly Cloudy 36 2.2 31 -0.6 82 82 Calm 30.37 1028 10 16.0934 0 0
6:52 am 06:52 Mostly Cloudy 35 1.7 31 -0.6 85 85 NNE 3 6 30.38 1029 10 16.0934 0 0
7:52 am 07:52 Mostly Cloudy 38 3.3 33 0.6 83 83 Calm 30.38 1029 7 11.26538 0 0
8:52 am 08:52 Mostly Cloudy 40 4.4 35 1.7 83 83 Calm 30.38 1029 7 11.26538 0 0
9:52 am 09:52 Mostly Cloudy 45 7.2 37 2.8 74 74 Calm 30.38 1029 9 14.48406 0 0
10:52 am 10:52 Mostly Cloudy 48 8.9 35 1.7 61 61 S 6 9 30.37 1028 10 16.0934 0 0
11:52 am 11:52 Mostly Cloudy 49 9.4 35 1.7 59 59 S 9 15 30.33 1027 10 16.0934 0 0
12:52 pm 12:52 Cloudy 51 10.6 36 2.2 56 56 S 8 13 30.3 1026 10 16.0934 0 0
1:52 pm 13:52 Cloudy 51 10.6 37 2.8 59 59 S 7 11 30.28 1025 10 16.0934 0 0
2:52 pm 14:52 Cloudy 51 10.6 39 3.9 64 64 S 9 15 30.26 1025 10 16.0934 0 0
3:52 pm 15:52 Cloudy 51 10.6 39 3.9 64 64 SSW 6 9 30.25 1025 10 16.0934 0 0
4:52 pm 16:52 Cloudy 48 8.9 39 3.9 71 71 S 7 11 30.24 1024 10 16.0934 0 0
5:52 pm 17:52 Cloudy 47 8.3 40 4.4 77 77 S 3 6 30.24 1024 10 16.0934 0 0
6:52 pm 18:52 Cloudy 48 8.9 38 3.3 68 68 Calm 30.23 1024 10 16.0934 0 0
7:52 pm 19:52 Cloudy 47 8.3 38 3.3 71 71 S 3 6 30.22 1024 10 16.0934 0 0
8:52 pm 20:52 Cloudy 47 8.3 38 3.3 71 71 SSW 6 9 30.22 1023 10 16.0934 0 0
9:52 pm 21:52 Cloudy 45 7.2 39 3.9 80 80 SSW 6 9 30.21 1023 10 16.0934 0 0
10:52 pm 22:52 Clear 44 6.7 39 3.9 83 83 SW 3 6 30.2 1023 10 16.0934 0 0
11:52 pm 23:52 Clear 44 6.7 39 3.9 83 83 SSW 6 9 30.19 1022 10 16.0934 0 0

Powered by AerisWeather